Showing default

QIANFAN-135, 69081

Orbit data source: Space-Track

QIANFAN-135, 69081 is a Chinese payload satellite in LEO that was launched on Tue, 12 May 2026 UTC via a CHANG ZHENG 6A launch vehicle from the Taiyaun Space Center, China (TSC). Payload-class satellites include a variety of spacecraft equipped with specific instruments for various scientific and technological missions. These include communications satellites like Starlink; space stations such as the ISS; scientific satellites like the Hubble; Earth observation satellites from companies like Planet Labs, Umbra, and HawkEye 360; GPS; miniature CubeSats for education and research; and military/defense satellites.

Loading next visibility...
Identifier
69081, 2026-104J
Orbit
LEO
Country
Flag of CNCN / PRC
Related business
Manufacturer
SECM
Mission
Operational spacecraft
Bus & Motor
QIANFAN, Unknown motor
Mass
267 kg wet, ~267 kg dry
Launch date (UTC)
2026-05-12 (4 weeks ago)
Launch vehicle
CHANG ZHENG 6A
Launch site
Taiyaun Space Center, China (TSC)
Object type
Payload
Rocket body
Debris
Shape & HBR
Unknown
Radar Cross Section
Large (>1 m²)

Expand to show TLE details & history
Last TLE update: 2 days ago

TLE from 2 days ago
0 QIANFAN-135
1 69081U 26104J   26155.27110324  .00000117  00000-0  48495-4 0  9999
2 69081  88.9863 343.0879 0004224 158.9872 201.1492 14.19621563  3251
Epoch: 2026-06-04T06:30Z
TLE epoch observation values (Epoch: 2026-06-04T06:30:23.319Z)
Latitude
-0.00007°
Longitude
-7.22703°
Altitude
832.524 km
Speed
7.435 km/s
True Right ascension
22h 52m 21s
True Declination
0° 00' 00"
Sunlit
Object was in daylight at epoch
Visualization orbit readout
Latitude
Unknown
Longitude
Unknown
Altitude
Unknown
Speed
Unknown
Apparent Right ascension
Unknown
Apparent Declination
Unknown
Sunlit
N/A
Visualization observer readout
Local Sidereal Time
03:42:02
Azimuth
Unknown
Elevation
Unknown
Doppler factor
Unknown
Orbital elements
Apogee altitude
826.627 km
Perigee altitude
820.543 km
Semi-major axis
7,201.722 km
Eccentricity
0.00042
Inclination
88.9863°
RAAN
343.0879°
Arg. of periapsis
158.9872°
True anomaly
201.13174°
Mean anomaly
201.1492°
Eccentric anomaly
201.14047°
Mean motion
3.55131 °/min
Orbital period
101.37 mins
BSTAR
0.000048495
Loading maneuver chart data...
Computing Atmospheric mass density...
Loading historical data...
Loading historical data...
Loading historical data...
Loading historical data...
Loading historical data...
Loading historical data...
Loading historical data...

Documentation

Showing up to 5 results
|